Flag for Angola Weather past 2 weeks in Luanda, Angola

Now
68 °F

Fog.


Feels Like: 68 °F
Forecast: 68 / 75 °F
Wind: 2 mph from North

Location: Luanda Airport

Current Time: Sep 4, 2015 at 9:14:30 AM

Latest Report: Sep 4, 2015 at 8:00 AM


Visibility: 3 mi

Pressure: 30.04 "Hg

Humidity: 88%

Dew point: 64 °F

Location of LuandaLocation

Historic Weather in Luanda — Graph

°F

Luanda temperature yesterday

Maximum temperature yesterday: 77 °F (at 4:00 PM)
Minimum temperature yesterday: 68 °F (at 12:00 AM)
Average temperature yesterday: 71 °F

Past Weeks' High & Low Weather Summary

 TemperatureHumidityPressure
High81 °F (Aug 31, 12:00 PM)100% (Aug 23, 6:00 AM)30.24 "Hg (Aug 23, 6:00 AM)
Low61 °F (Aug 23, 6:00 AM)27% (Aug 21, 7:00 PM)29.83 "Hg (Aug 23, 4:00 PM)
Average70 °F82%29.96 "Hg
* Reported Aug 20 8:00 AM — Sep 4 8:00 AM, Luanda, Weather by CustomWeather, © 2015

Note: Actual official high and low records may vary slightly from our data, if they occured in-between our weather recording intervals... More about our weather records

Advertising

Luanda weather history for previous 24 hours

 ConditionsComfort  
Time TempWeatherWind HumidityBarometerVisibility
8:00 AM
Fri, Sep 4
68 °FFog.2 mph88%30.04 "Hg3 mi
7:00 AM66 °FPartly sunny.5 mph88%30.01 "Hg4 mi
6:00 AM66 °FPassing clouds.5 mph94%29.98 "HgN/A
5:00 AM66 °FPassing clouds.7 mph94%29.98 "HgN/A
3:00 AM66 °FClear.5 mph94%29.95 "Hg10 mi
2:00 AM68 °FClear.5 mph88%29.95 "Hg10 mi
1:00 AM68 °FClear.6 mph88%29.98 "Hg10 mi
12:00 AM68 °FClear.2 mph88%29.98 "Hg10 mi
11:00 PM
Thu, Sep 3
68 °FClear.1 mph88%29.98 "Hg10 mi
10:00 PM68 °FClear.No wind88%29.98 "Hg10 mi
9:00 PM70 °FClear.3 mph83%29.98 "Hg10 mi
8:00 PM70 °FClear.2 mph83%29.95 "Hg10 mi
7:00 PM70 °FPassing clouds.5 mph83%29.95 "HgN/A
6:00 PM72 °FSunny.5 mph78%29.92 "Hg10 mi
5:00 PM75 °FPassing clouds.3 mph65%29.92 "HgN/A
4:00 PM77 °FScattered clouds.3 mph61%29.92 "HgN/A
3:00 PM75 °FPartly sunny.2 mph74%29.95 "HgN/A
2:05 PM75 °FPartly sunny.3 mph69%29.98 "Hg6 mi
2:00 PM75 °FPartly sunny.3 mph69%29.98 "Hg6 mi
1:00 PM73 °FPartly sunny.5 mph78%29.98 "Hg6 mi
10:00 AM70 °FFog.2 mph83%30.04 "Hg3 mi
9:00 AM68 °FDrizzle. More clouds than sun.2 mph94%30.04 "Hg1 mi
Weather by CustomWeather, © 2015

See weather overviewHow to use our weather pages